| time (UTC) | temp C | wind direction | speed KPH | gust KPH | rain 1hr cm | rain 24hr cm | rain mn cm | humidity % | barometer mb |
| 20260503050005 | 32 | 90 | 4.8 | 6.4 | 0.00 | 0.00 | 0.00 | 63 | 1008.5 |
| 20260503045005 | 32 | 22 | 4.8 | 6.4 | 0.00 | 0.00 | 0.00 | 63 | 1008.6 |
| 20260503044005 | 32 | 45 | 1.6 | 4.8 | 0.00 | 0.00 | 0.00 | 64 | 1008.9 |
| 20260503043004 | 32 | 315 | 1.6 | 4.8 | 0.00 | 0.00 | 0.00 | 64 | 1008.9 |
| 20260503042003 | 31 | 315 | 1.6 | 4.8 | 0.00 | 0.00 | 0.00 | 66 | 1009.2 |
| 20260503041004 | 31 | 22 | 0.0 | 1.6 | 0.00 | 0.00 | 0.00 | 66 | 1009.4 |
| 20260503040005 | 32 | 292 | 4.8 | 4.8 | 0.00 | 0.00 | 0.00 | 62 | 1009.4 |
| 20260503035005 | 33 | 180 | 0.0 | 1.6 | 0.00 | 0.00 | 0.00 | 57 | 1009.4 |
| 20260503034005 | 32 | 90 | 3.2 | 4.8 | 0.00 | 0.00 | 0.00 | 58 | 1009.7 |
| 20260503033005 | 32 | 112 | 4.8 | 9.7 | 0.00 | 0.00 | 0.00 | 57 | 1009.6 |
| 20260503032004 | 32 | 45 | 1.6 | 3.2 | 0.00 | 0.00 | 0.00 | 60 | 1009.7 |
| 20260503031005 | 32 | 270 | 0.0 | 1.6 | 0.00 | 0.00 | 0.00 | 63 | 1009.7 |
| 20260503030005 | 32 | 292 | 0.0 | 3.2 | 0.00 | 0.00 | 0.00 | 65 | 1009.7 |
| 20260503025004 | 31 | 247 | 1.6 | 3.2 | 0.00 | 0.00 | 0.00 | 70 | 1010.0 |
| 20260503024004 | 31 | 292 | 3.2 | 4.8 | 0.00 | 0.00 | 0.00 | 69 | 1010.0 |
| 20260503023005 | 30 | 157 | 3.2 | 4.8 | 0.00 | 0.00 | 0.00 | 71 | 1009.9 |
| 20260503022004 | 30 | 112 | 0.0 | 1.6 | 0.00 | 0.00 | 0.00 | 73 | 1010.0 |
| 20260503021005 | 30 | 112 | 0.0 | 1.6 | 0.00 | 0.00 | 0.00 | 74 | 1010.1 |
| 20260503020005 | 30 | 180 | 3.2 | 4.8 | 0.00 | 0.00 | 0.00 | 75 | 1010.3 |
| 20260503015005 | 30 | 112 | 0.0 | 1.6 | 0.00 | 0.00 | 0.00 | 78 | 1010.2 |
| 20260503014004 | 28 | 180 | 3.2 | 4.8 | 0.00 | 0.00 | 0.00 | 82 | 1010.2 |
| 20260503013005 | -17 | 0 | 0.0 | 0.0 | 0.00 | 0.00 | 0.00 | 100 | 1010.3 |
| 20260503012005 | -17 | 0 | 0.0 | 0.0 | 0.00 | 0.00 | 0.00 | 100 | 1010.2 |
| 20260503011004 | 27 | 157 | 3.2 | 4.8 | 0.00 | 0.00 | 0.00 | 89 | 1010.2 |
| 20260503010004 | 26 | 135 | 3.2 | 6.4 | 0.00 | 0.00 | 0.00 | 90 | 1010.1 |
| 20260503005005 | 26 | 135 | 1.6 | 3.2 | 0.00 | 0.00 | 0.00 | 92 | 1009.9 |
| 20260503004005 | 26 | 135 | 3.2 | 4.8 | 0.00 | 0.00 | 0.00 | 93 | 1010.0 |
| 20260503003004 | 26 | 157 | 4.8 | 4.8 | 0.00 | 0.00 | 0.00 | 93 | 1009.9 |
| 20260503002004 | 26 | 135 | 0.0 | 0.0 | 0.00 | 0.00 | 0.00 | 94 | 1009.8 |
| 20260503001005 | 25 | 135 | 0.0 | 1.6 | 0.00 | 0.00 | 0.00 | 95 | 1009.5 |
| 20260503000005 | 25 | 112 | 0.0 | 1.6 | 0.00 | 0.00 | 0.00 | 96 | 1009.5 |
| 20260502235005 | 25 | 112 | 0.0 | 0.0 | 0.00 | 0.00 | 0.00 | 96 | 1009.2 |
| 20260502234005 | 25 | 112 | 0.0 | 1.6 | 0.00 | 0.00 | 0.00 | 96 | 1009.1 |
| 20260502233005 | 25 | 112 | 0.0 | 1.6 | 0.00 | 0.00 | 0.00 | 97 | 1008.9 |
| 20260502232005 | 25 | 112 | 0.0 | 0.0 | 0.00 | 0.00 | 0.00 | 97 | 1009.0 |
| 20260502231005 | 25 | 90 | 0.0 | 1.6 | 0.00 | 0.00 | 0.00 | 97 | 1008.7 |
| 20260502230005 | 25 | 90 | 1.6 | 1.6 | 0.00 | 0.00 | 0.00 | 97 | 1008.5 |
| 20260502225006 | 25 | 135 | 0.0 | 1.6 | 0.00 | 0.00 | 0.00 | 97 | 1008.4 |
| 20260502224004 | 25 | 135 | 0.0 | 0.0 | 0.00 | 0.00 | 0.00 | 97 | 1008.4 |
| 20260502223005 | 25 | 135 | 0.0 | 0.0 | 0.00 | 0.00 | 0.00 | 97 | 1008.3 |
| 20260502222006 | 25 | 112 | 0.0 | 0.0 | 0.00 | 0.00 | 0.00 | 97 | 1008.3 |
| 20260502221005 | 25 | 112 | 0.0 | 1.6 | 0.00 | 0.00 | 0.00 | 97 | 1008.3 |
| 20260502220004 | 25 | 247 | 0.0 | 0.0 | 0.00 | 0.00 | 0.00 | 97 | 1008.0 |
| 20260502215005 | 25 | 270 | 0.0 | 0.0 | 0.00 | 0.00 | 0.00 | 97 | 1008.0 |
| 20260502214004 | 25 | 225 | 0.0 | 0.0 | 0.00 | 0.00 | 0.00 | 97 | 1007.8 |
| 20260502213005 | 25 | 225 | 0.0 | 0.0 | 0.00 | 0.00 | 0.00 | 97 | 1007.8 |
| 20260502212004 | 25 | 225 | 0.0 | 0.0 | 0.00 | 0.00 | 0.00 | 96 | 1007.6 |
| 20260502211004 | 25 | 270 | 0.0 | 1.6 | 0.00 | 0.00 | 0.00 | 96 | 1007.7 |
| 20260502210005 | 25 | 270 | 1.6 | 3.2 | 0.00 | 0.00 | 0.00 | 96 | 1007.5 |
| 20260502205005 | 25 | 270 | 1.6 | 1.6 | 0.00 | 0.00 | 0.00 | 96 | 1007.5 |
| 20260502204004 | 25 | 270 | 1.6 | 1.6 | 0.00 | 0.00 | 0.00 | 96 | 1007.3 |
| 20260502203005 | 25 | 270 | 0.0 | 1.6 | 0.00 | 0.00 | 0.00 | 97 | 1007.2 |
| 20260502202005 | 25 | 270 | 0.0 | 0.0 | 0.00 | 0.00 | 0.00 | 96 | 1007.4 |
| 20260502201004 | 25 | 270 | 0.0 | 0.0 | 0.00 | 0.00 | 0.00 | 96 | 1007.3 |
| 20260502195005 | 25 | 270 | 0.0 | 1.6 | 0.00 | 0.00 | 0.00 | 96 | 1007.3 |
| 20260502194005 | 25 | 270 | 1.6 | 1.6 | 0.00 | 0.00 | 0.00 | 96 | 1007.5 |
| 20260502193006 | 25 | 270 | 1.6 | 3.2 | 0.00 | 0.00 | 0.00 | 96 | 1007.4 |
| 20260502192005 | 25 | 225 | 3.2 | 3.2 | 0.00 | 0.00 | 0.00 | 96 | 1007.7 |
| 20260502191006 | 25 | 247 | 0.0 | 1.6 | 0.00 | 0.00 | 0.00 | 96 | 1007.7 |
| 20260502190005 | 25 | 247 | 1.6 | 4.8 | 0.00 | 0.00 | 0.00 | 96 | 1007.8 |
| 20260502185005 | 25 | 247 | 3.2 | 3.2 | 0.00 | 0.00 | 0.00 | 96 | 1007.9 |
| 20260502184004 | 25 | 225 | 0.0 | 3.2 | 0.00 | 0.00 | 0.00 | 96 | 1008.1 |
| 20260502183005 | 25 | 202 | 0.0 | 1.6 | 0.00 | 0.00 | 0.00 | 96 | 1008.1 |
| 20260502182005 | 25 | 225 | 0.0 | 1.6 | 0.00 | 0.00 | 0.00 | 96 | 1008.2 |
| 20260502181011 | 25 | 202 | 0.0 | 1.6 | 0.00 | 0.00 | 0.00 | 96 | 1008.3 |
| 20260502164004 | 25 | 225 | 1.6 | 3.2 | 0.00 | 0.00 | 0.00 | 95 | 1009.0 |
| 20260502163005 | 25 | 247 | 1.6 | 3.2 | 0.00 | 0.00 | 0.00 | 95 | 1009.2 |
| 20260502162004 | 25 | 270 | 1.6 | 3.2 | 0.00 | 0.00 | 0.00 | 95 | 1009.4 |
| 20260502161005 | 25 | 247 | 1.6 | 3.2 | 0.00 | 0.00 | 0.00 | 95 | 1009.4 |
| 20260502152004 | 26 | 247 | 3.2 | 4.8 | 0.00 | 0.00 | 0.00 | 95 | 1009.7 |
| 20260502151006 | 26 | 247 | 3.2 | 4.8 | 0.00 | 0.00 | 0.00 | 94 | 1009.4 |
| 20260502123006 | 26 | 202 | 1.6 | 3.2 | 0.00 | 0.00 | 0.00 | 95 | 1007.8 |
| 20260502122003 | 26 | 225 | 3.2 | 4.8 | 0.00 | 0.00 | 0.00 | 95 | 1007.6 |
| 20260502121005 | 26 | 247 | 3.2 | 4.8 | 0.00 | 0.00 | 0.00 | 95 | 1007.5 |
| 20260502115004 | 26 | 157 | 0.0 | 0.0 | 0.00 | 0.00 | 0.00 | 95 | 1007.3 |
| 20260502114005 | 26 | 157 | 0.0 | 0.0 | 0.00 | 0.00 | 0.00 | 95 | 1007.2 |
| 20260502113004 | 26 | 180 | 0.0 | 1.6 | 0.00 | 0.00 | 0.00 | 95 | 1006.8 |
| 20260502112004 | 26 | 225 | 0.0 | 1.6 | 0.00 | 0.00 | 0.00 | 94 | 1006.8 |
| 20260502111006 | 26 | 225 | 1.6 | 3.2 | 0.00 | 0.00 | 0.00 | 94 | 1006.6 |
| 20260502110005 | 27 | 225 | 3.2 | 3.2 | 0.00 | 0.00 | 0.00 | 93 | 1006.5 |
| 20260502105004 | 27 | 225 | 1.6 | 3.2 | 0.00 | 0.00 | 0.00 | 92 | 1006.3 |
| 20260502104005 | 26 | 202 | 1.6 | 1.6 | 0.00 | 0.00 | 0.00 | 93 | 1006.1 |
| 20260502103005 | 27 | 180 | 0.0 | 1.6 | 0.00 | 0.00 | 0.00 | 93 | 1006.0 |
| 20260502102004 | 27 | 180 | 1.6 | 1.6 | 0.00 | 0.00 | 0.00 | 91 | 1006.1 |
| 20260502101005 | 27 | 112 | 0.0 | 0.0 | 0.00 | 0.00 | 0.00 | 90 | 1006.0 |
| 20260502091004 | 26 | 67 | 0.0 | 1.6 | 0.00 | 0.00 | 0.00 | 92 | 1005.9 |
| 20260502071005 | 31 | 22 | 6.4 | 12.9 | 0.00 | 0.00 | 0.00 | 71 | 1005.8 |
| 20260502070005 | 31 | 337 | 9.7 | 16.1 | 0.00 | 0.00 | 0.00 | 70 | 1006.1 |
| 20260502065006 | 31 | 22 | 14.5 | 19.3 | 0.00 | 0.00 | 0.00 | 70 | 1006.1 |
| 20260502064005 | 31 | 0 | 8.0 | 16.1 | 0.00 | 0.00 | 0.00 | 71 | 1006.4 |
| 20260502063004 | 31 | 292 | 12.9 | 20.9 | 0.00 | 0.00 | 0.00 | 69 | 1006.4 |
| 20260502062003 | 31 | 0 | 9.7 | 16.1 | 0.00 | 0.00 | 0.00 | 70 | 1006.5 |
| 20260502061005 | 32 | 337 | 8.0 | 12.9 | 0.00 | 0.00 | 0.00 | 69 | 1006.6 |
| 20260502060004 | 32 | 337 | 14.5 | 17.7 | 0.00 | 0.00 | 0.00 | 66 | 1006.9 |
| 20260502055004 | 33 | 337 | 6.4 | 9.7 | 0.00 | 0.00 | 0.00 | 63 | 1007.0 |
| 20260502054004 | 32 | 292 | 6.4 | 9.7 | 0.00 | 0.00 | 0.00 | 61 | 1007.3 |
| 20260502053004 | 32 | 292 | 6.4 | 9.7 | 0.00 | 0.00 | 0.00 | 65 | 1007.6 |
| 20260502052003 | 32 | 270 | 9.7 | 9.7 | 0.00 | 0.00 | 0.00 | 64 | 1008.0 |
| 20260502051005 | 32 | 292 | 8.0 | 12.9 | 0.00 | 0.00 | 0.00 | 66 | 1008.3 |